Coconut Island Observation History
Time Wind Speed Temp Pressure Rel. Hum Rain
14/10:00am - 0.0 kts 30.0°c 1009.6 hPa n/a 0.2mm
14/09:30am - 0.0 kts 29.9°c 1009.7 hPa n/a 0.0mm
14/09:00am - 0.0 kts 29.1°c 1009.3 hPa n/a 0.4mm
14/08:30am - 0.0 kts 28.9°c 1009.2 hPa n/a 0.4mm
14/08:00am - 0.0 kts 28.2°c 1008.7 hPa n/a 0.4mm
14/07:30am - 0.0 kts 27.4°c 1008.6 hPa n/a 0.4mm
14/07:00am - 0.0 kts 26.9°c 1008.5 hPa n/a 0.4mm
14/06:30am - 0.0 kts 26.6°c 1008.5 hPa n/a 0.4mm
14/06:00am - 0.0 kts 26.7°c 1008.0 hPa n/a 0.4mm
14/05:30am - 0.0 kts 26.9°c 1007.8 hPa n/a 0.4mm
14/05:00am - 0.0 kts 26.9°c 1007.4 hPa n/a 0.4mm
14/04:30am - 0.0 kts 27.0°c 1007.2 hPa n/a 0.4mm
14/04:00am - 0.0 kts 27.1°c 1007.3 hPa n/a 0.4mm
14/03:30am - 0.0 kts 27.3°c 1007.7 hPa n/a 0.4mm
14/03:00am - 0.0 kts 27.3°c 1007.7 hPa n/a 0.4mm
14/02:30am - 0.0 kts 27.3°c 1007.9 hPa n/a 0.4mm
14/02:00am - 0.0 kts 27.3°c 1008.4 hPa n/a 0.4mm
14/01:30am - 0.0 kts 27.3°c 1008.7 hPa n/a 0.4mm
14/01:00am - 0.0 kts 27.2°c 1008.7 hPa n/a 0.4mm
14/12:30am - 0.0 kts 27.2°c 1008.7 hPa n/a 0.4mm
14/12:00am - 0.0 kts 27.3°c 1008.9 hPa n/a 0.4mm
Time Wind Speed Temp Pressure Rel. Hum Rain
13/11:30pm - 0.0 kts 27.3°c 1009.0 hPa n/a 0.4mm
13/11:00pm - 0.0 kts 27.3°c 1008.9 hPa n/a 0.4mm
13/10:30pm - 0.0 kts 27.3°c 1008.8 hPa n/a 0.4mm
13/10:00pm - 0.0 kts 27.0°c 1008.9 hPa n/a 0.4mm
13/09:30pm - 0.0 kts 26.6°c 1009.1 hPa n/a 0.4mm
13/09:00pm - 0.0 kts 27.4°c 1008.8 hPa n/a 0.0mm
13/08:30pm - 0.0 kts 27.5°c 1008.7 hPa n/a 0.0mm
13/08:00pm - 0.0 kts 27.2°c 1008.5 hPa n/a 0.0mm
13/07:30pm - 0.0 kts 27.2°c 1008.1 hPa n/a 0.0mm
13/07:00pm - 0.0 kts 27.1°c 1007.7 hPa n/a 0.0mm
13/06:30pm - 0.0 kts 27.3°c 1007.3 hPa n/a 0.0mm
13/06:00pm - 0.0 kts 27.4°c 1007.2 hPa n/a 0.0mm
13/05:30pm - 0.0 kts 28.3°c 1007.3 hPa n/a 0.0mm
13/05:00pm - 0.0 kts 29.4°c 1007.1 hPa n/a 0.0mm
13/04:30pm - 0.0 kts 29.4°c 1006.8 hPa n/a 0.0mm
13/04:00pm - 0.0 kts 30.2°c 1006.7 hPa n/a 0.0mm
13/03:30pm - 0.0 kts 30.6°c 1006.8 hPa n/a 0.0mm
13/03:00pm - 0.0 kts 30.6°c 1006.8 hPa n/a 0.0mm
13/02:30pm - 0.0 kts 31.1°c 1007.0 hPa n/a 0.0mm
13/02:00pm - 0.0 kts 31.1°c 1007.4 hPa n/a 0.0mm
13/01:30pm - 0.0 kts 30.8°c 1007.8 hPa n/a 0.0mm
13/01:00pm - 0.0 kts 31.1°c 1008.2 hPa n/a 0.0mm
13/12:30pm - 0.0 kts 30.6°c 1008.5 hPa n/a 0.0mm
13/12:00pm - 0.0 kts 30.3°c 1009.0 hPa n/a 0.0mm
13/11:30am - 0.0 kts 29.0°c 1009.4 hPa n/a 0.0mm
13/11:00am - 0.0 kts 30.1°c 1009.6 hPa n/a 0.0mm
13/10:30am - 0.0 kts 30.4°c 1009.7 hPa n/a 0.0mm
13/10:00am - 0.0 kts 30.0°c 1009.9 hPa n/a 0.0mm
13/09:30am - 0.0 kts 29.4°c 1009.8 hPa n/a 0.0mm
13/09:00am - 0.0 kts 28.6°c 1009.5 hPa n/a 0.2mm
13/08:30am - 0.0 kts 28.3°c 1009.6 hPa n/a 0.2mm
13/08:00am - 0.0 kts 28.2°c 1009.6 hPa n/a 0.2mm
13/07:30am - 0.0 kts 27.4°c 1009.3 hPa n/a 0.2mm
13/07:00am - 0.0 kts 27.0°c 1009.2 hPa n/a 0.2mm
13/06:30am - 0.0 kts 26.8°c 1008.9 hPa n/a 0.2mm
13/06:00am - 0.0 kts 26.8°c 1008.5 hPa n/a 0.2mm
13/05:30am - 0.0 kts 26.9°c 1008.3 hPa n/a 0.2mm
13/05:00am - 0.0 kts 26.9°c 1008.0 hPa n/a 0.2mm
13/04:30am - 0.0 kts 27.0°c 1008.0 hPa n/a 0.2mm
13/04:00am - 0.0 kts 26.9°c 1008.3 hPa n/a 0.2mm
13/03:30am - 0.0 kts 26.9°c 1008.3 hPa n/a 0.2mm
13/03:00am - 0.0 kts 27.1°c 1008.3 hPa n/a 0.2mm
13/02:30am - 0.0 kts 27.1°c 1008.5 hPa n/a 0.2mm
13/02:00am - 0.0 kts 27.1°c 1008.7 hPa n/a 0.2mm
13/01:30am - 0.0 kts 27.1°c 1009.0 hPa n/a 0.2mm
13/01:00am - 0.0 kts 27.4°c 1009.3 hPa n/a 0.2mm
13/12:30am - 0.0 kts 27.4°c 1009.6 hPa n/a 0.2mm
13/12:00am - 0.0 kts 27.3°c 1009.9 hPa n/a 0.2mm
Time Wind Speed Temp Pressure Rel. Hum Rain
12/11:30pm - 0.0 kts 27.2°c 1010.0 hPa n/a 0.2mm
12/11:00pm - 0.0 kts 27.3°c 1010.2 hPa n/a 0.2mm
12/10:30pm - 0.0 kts 27.4°c 1010.3 hPa n/a 0.2mm
12/10:00pm - 0.0 kts 27.4°c 1010.3 hPa n/a 0.2mm
12/09:30pm - 0.0 kts 27.5°c 1010.4 hPa n/a 0.2mm
12/09:00pm - 0.0 kts 27.4°c 1010.3 hPa n/a 0.2mm
12/08:30pm - 0.0 kts 27.5°c 1009.9 hPa n/a 0.2mm
12/08:00pm - 0.0 kts 27.6°c 1009.5 hPa n/a 0.2mm
12/07:30pm - 0.0 kts 27.4°c 1009.1 hPa n/a 0.2mm
12/07:00pm - 0.0 kts 27.4°c 1008.8 hPa n/a 0.2mm
12/06:30pm - 0.0 kts 27.5°c 1008.6 hPa n/a 0.0mm
12/06:00pm - 0.0 kts 28.2°c 1008.2 hPa n/a 0.0mm
12/05:30pm - 0.0 kts 28.3°c 1008.1 hPa n/a 0.0mm
12/05:00pm - 0.0 kts 28.5°c 1007.8 hPa n/a 0.0mm
12/04:30pm - 0.0 kts 30.0°c 1007.5 hPa n/a 0.0mm
12/04:00pm - 0.0 kts 30.1°c 1007.4 hPa n/a 0.0mm
12/03:30pm - 0.0 kts 30.6°c 1007.4 hPa n/a 0.0mm
12/03:00pm - 0.0 kts 30.0°c 1007.5 hPa n/a 0.0mm
12/02:30pm - 0.0 kts 30.1°c 1007.9 hPa n/a 0.0mm
12/02:00pm - 0.0 kts 31.9°c 1008.1 hPa n/a 0.0mm
12/01:30pm - 0.0 kts 32.0°c 1008.4 hPa n/a 0.0mm
12/01:00pm - 0.0 kts 31.6°c 1008.8 hPa n/a 0.0mm
12/12:30pm - 0.0 kts 31.4°c 1009.3 hPa n/a 0.0mm
12/12:00pm - 0.0 kts 31.0°c 1009.7 hPa n/a 0.0mm
12/11:30am - 0.0 kts 30.7°c 1010.0 hPa n/a 0.0mm
12/11:00am - 0.0 kts 30.4°c 1010.3 hPa n/a 0.0mm
12/10:30am - 0.0 kts 29.8°c 1010.7 hPa n/a 0.0mm
12/10:00am - 0.0 kts 29.5°c 1010.9 hPa n/a 0.0mm
12/09:30am - 0.0 kts 30.0°c 1011.1 hPa n/a 0.0mm
12/09:00am - 0.0 kts 29.6°c 1011.0 hPa n/a 1.4mm
12/08:30am - 0.0 kts 29.0°c 1010.8 hPa n/a 1.4mm
12/08:00am - 0.0 kts 27.5°c 1010.3 hPa n/a 1.4mm
12/07:30am - 0.0 kts 27.1°c 1010.1 hPa n/a 1.4mm
12/07:00am - 0.0 kts 26.7°c 1009.6 hPa n/a 1.4mm
12/06:30am - 0.0 kts 26.6°c 1009.2 hPa n/a 1.4mm
12/06:00am - 0.0 kts 26.6°c 1008.9 hPa n/a 1.4mm
12/05:30am - 0.0 kts 26.6°c 1008.5 hPa n/a 1.4mm
12/05:00am - 0.0 kts 26.6°c 1008.4 hPa n/a 1.4mm
12/04:30am - 0.0 kts 26.7°c 1008.3 hPa n/a 1.4mm
12/04:00am - 0.0 kts 26.6°c 1008.3 hPa n/a 1.4mm
12/03:30am - 0.0 kts 26.7°c 1008.3 hPa n/a 1.4mm
12/03:00am - 0.0 kts 26.8°c 1008.2 hPa n/a 1.4mm
12/02:30am - 0.0 kts 26.7°c 1008.8 hPa n/a 1.4mm
12/02:00am - 0.0 kts 26.6°c 1009.2 hPa n/a 1.4mm
12/01:30am - 0.0 kts 27.0°c 1009.5 hPa n/a 1.0mm
12/01:00am - 0.0 kts 27.3°c 1009.6 hPa n/a 0.2mm
12/12:30am - 0.0 kts 27.3°c 1010.0 hPa n/a 0.2mm
12/12:00am - 0.0 kts 27.4°c 1010.3 hPa n/a 0.2mm